Boone, NC

7:12 PM EDT on April 24, 2018 (GMT -0400)
Boone

Weather History for KTNB - May, 2014

Change the Weather History Date:

Friday, May 2, 2014

  Actual Average (KGEV) Record (KGEV)
Temperature  
Mean Temperature 53 °F -  
Max Temperature 61 °F 68 °F 82 °F (2007)
Min Temperature 45 °F 43 °F 27 °F (1988)
Degree Days  
Heating Degree Days 12    
Growing Degree Days 3 (Base 50)    
Moisture  
Dew Point 30 °F    
Average Humidity 45    
Maximum Humidity 57    
Minimum Humidity 29    
Precipitation  
Precipitation 0.00 in - - ()
Sea Level Pressure  
Sea Level Pressure 29.93 in    
Wind  
Wind Speed 12 mph (WNW)    
Max Wind Speed 21 mph    
Max Gust Speed 28 mph    
Visibility 10 miles    
Events      
Averages and records for this station are not official NWS values.
T = Trace of Precipitation, MM = Missing Value Source: NWS Daily Summary

Daily Weather History Graph

Daily Weather History Graph

Search for Another Location

Airport or City:

Astronomy

May. 02, 2014 Rise Set
Actual Time 6:32 AM EDT 8:15 PM EDT
Civil Twilight 6:05 AM EDT 8:42 PM EDT
Nautical Twilight 5:31 AM EDT 9:16 PM EDT
Astronomical Twilight 4:56 AM EDT 9:51 PM EDT
Moon 9:10 AM EDT (5/2) 11:34 PM EDT (5/2)
Length of Visible Light 14h 37m
Length of Day
13h 42m
Waxing Crescent, 12% of the Moon is Illuminated
May 2
Waxing Crescent
May 6
First Quarter
May 14
Full
May 21
Last Quarter
May 28
New

Hourly Weather History & Observations

Time (EDT) Temp. Windchill Dew Point Humidity Pressure Visibility Wind Dir Wind Speed Gust Speed Precip Events Conditions
12:15 AM 48.6 °F - 33.3 °F 56% 29.91 in 10.0 mi WNW 19.6 mph 27.6 mph N/A   Clear
12:35 AM 48.4 °F - 33.4 °F 56% 29.91 in 10.0 mi NW 20.7 mph 27.6 mph N/A   Clear
12:55 AM 48.2 °F - 33.6 °F 57% 29.92 in 10.0 mi WNW 16.1 mph 24.2 mph N/A   Clear
1:15 AM 47.8 °F - 32.9 °F 56% 29.92 in 10.0 mi NW 16.1 mph 24.2 mph N/A   Clear
1:35 AM 47.7 °F - 32.0 °F 55% 29.92 in 10.0 mi WNW 18.4 mph 27.6 mph N/A   Clear
1:55 AM 47.3 °F - 32.0 °F 55% 29.92 in 10.0 mi WNW 13.8 mph 19.6 mph N/A   Clear
2:15 AM 47.3 °F - 31.3 °F 54% 29.92 in 10.0 mi WNW 10.4 mph 21.9 mph N/A   Clear
2:35 AM 46.8 °F - 31.3 °F 55% 29.92 in 10.0 mi WNW 8.1 mph - N/A   Clear
2:55 AM 46.4 °F 41.5 °F 30.6 °F 54% 29.91 in 10.0 mi WNW 10.4 mph 16.1 mph N/A   Clear
3:15 AM 46.6 °F - 29.3 °F 51% 29.92 in 10.0 mi WNW 10.4 mph 18.4 mph N/A   Clear
3:35 AM 46.4 °F 41.9 °F 29.1 °F 51% 29.91 in 10.0 mi NW 9.2 mph 16.1 mph N/A   Clear
3:55 AM 46.4 °F 42.4 °F 28.9 °F 51% 29.92 in 10.0 mi West 8.1 mph 18.4 mph N/A   Clear
4:15 AM 45.9 °F 40.8 °F 29.8 °F 54% 29.92 in 10.0 mi WNW 10.4 mph - N/A   Clear
4:35 AM 45.7 °F 41.0 °F 29.8 °F 54% 29.92 in 10.0 mi WNW 9.2 mph - N/A   Clear
4:55 AM 45.7 °F 41.0 °F 30.0 °F 54% 29.93 in 10.0 mi WNW 9.2 mph - N/A   Clear
5:15 AM 45.5 °F 39.2 °F 30.2 °F 55% 29.93 in 10.0 mi West 13.8 mph - N/A   Clear
5:35 AM 45.1 °F 37.6 °F 30.2 °F 56% 29.91 in 10.0 mi NW 18.4 mph 26.5 mph N/A   Clear
5:55 AM 45.1 °F 39.1 °F 30.2 °F 56% 29.93 in 10.0 mi NW 12.7 mph 19.6 mph N/A   Clear
6:15 AM 45.1 °F 42.0 °F 30.2 °F 56% 29.94 in 10.0 mi West 5.8 mph - N/A   Clear
6:35 AM 45.0 °F - 30.4 °F 57% 29.95 in 10.0 mi Calm Calm - N/A   Clear
6:55 AM 45.1 °F 42.0 °F 30.2 °F 56% 29.96 in 10.0 mi West 5.8 mph - N/A   Clear
7:15 AM 45.0 °F 40.6 °F 30.7 °F 57% 29.96 in 10.0 mi WNW 8.1 mph - N/A   Clear
7:35 AM 45.5 °F 41.3 °F 30.9 °F 57% 29.96 in 10.0 mi WNW 8.1 mph 11.5 mph N/A   Clear
7:55 AM 46.0 °F 41.9 °F 31.1 °F 56% 29.96 in 10.0 mi WNW 8.1 mph - N/A   Clear
8:15 AM 46.6 °F - 31.1 °F 55% 29.97 in 10.0 mi WNW 10.4 mph 17.3 mph N/A   Clear
8:35 AM 46.9 °F - 31.1 °F 54% 29.97 in 10.0 mi WNW 11.5 mph 17.3 mph N/A   Clear
8:55 AM 47.5 °F - 30.9 °F 53% 29.98 in 10.0 mi WNW 9.2 mph 16.1 mph N/A   Clear
9:15 AM 48.2 °F - 30.7 °F 51% 29.98 in 10.0 mi WNW 11.5 mph 19.6 mph N/A   Clear
9:35 AM 49.6 °F - 30.9 °F 49% 29.98 in 10.0 mi WNW 9.2 mph - N/A   Clear
9:55 AM 50.2 °F - 31.5 °F 49% 29.97 in 10.0 mi WNW 11.5 mph 16.1 mph N/A   Clear
10:15 AM 50.4 °F - 31.1 °F 48% 29.97 in 10.0 mi WNW 11.5 mph 17.3 mph N/A   Clear
10:35 AM 52.0 °F - 30.7 °F 44% 29.97 in 10.0 mi NW 10.4 mph 19.6 mph N/A   Scattered Clouds
10:55 AM 51.8 °F - 29.8 °F 43% 29.97 in 10.0 mi NW 12.7 mph 18.4 mph N/A   Scattered Clouds
11:15 AM 52.5 °F - 27.7 °F 38% 29.97 in 10.0 mi WNW 13.8 mph 20.7 mph N/A   Scattered Clouds
11:35 AM 52.9 °F - 27.7 °F 38% 29.95 in 10.0 mi WNW 11.5 mph 21.9 mph N/A   Clear
11:55 AM 54.9 °F - 27.5 °F 35% 29.95 in 10.0 mi NW 11.5 mph 18.4 mph N/A   Clear
12:15 PM 54.7 °F - 26.1 °F 33% 29.94 in 10.0 mi NNW 10.4 mph 19.6 mph N/A   Clear
12:35 PM 55.0 °F - 26.2 °F 33% 29.95 in 10.0 mi WNW 16.1 mph 21.9 mph N/A   Clear
12:55 PM 55.2 °F - 26.4 °F 33% 29.94 in 10.0 mi WNW 8.1 mph 18.4 mph N/A   Clear
1:15 PM 56.5 °F - 26.6 °F 32% 29.94 in 10.0 mi NW 11.5 mph 18.4 mph N/A   Clear
1:35 PM 57.2 °F - 27.0 °F 31% 29.93 in 10.0 mi NNW 8.1 mph 20.7 mph N/A   Clear
1:55 PM 58.3 °F - 27.1 °F 30% 29.93 in 10.0 mi NW 10.4 mph - N/A   Clear
2:15 PM 58.5 °F - 26.6 °F 30% 29.93 in 10.0 mi WNW 6.9 mph 18.4 mph N/A   Clear
2:35 PM 58.6 °F - 27.7 °F 31% 29.92 in 10.0 mi NNW 8.1 mph 16.1 mph N/A   Clear
2:55 PM 60.4 °F - 27.9 °F 29% 29.92 in 10.0 mi NNW 10.4 mph 17.3 mph N/A   Clear
3:15 PM 59.4 °F - 27.9 °F 30% 29.92 in 10.0 mi WNW 15.0 mph 19.6 mph N/A   Clear
3:35 PM 58.6 °F - 27.5 °F 30% 29.91 in 10.0 mi NNW 8.1 mph 18.4 mph N/A   Clear
3:55 PM 61.2 °F - 28.9 °F 30% 29.90 in 10.0 mi WNW 8.1 mph - N/A   Clear
4:15 PM 61.7 °F - 28.9 °F 29% 29.89 in 10.0 mi NNW 6.9 mph 20.7 mph N/A   Clear
4:35 PM 61.2 °F - 28.9 °F 30% 29.89 in 10.0 mi NW 12.7 mph 17.3 mph N/A   Clear
4:55 PM 60.8 °F - 29.5 °F 31% 29.89 in 10.0 mi WNW 15.0 mph 20.7 mph N/A   Clear
5:15 PM 60.6 °F - 29.7 °F 31% 29.90 in 10.0 mi WNW 12.7 mph 19.6 mph N/A   Clear
5:35 PM 60.1 °F - 29.8 °F 32% 29.91 in 10.0 mi WNW 12.7 mph - N/A   Clear
5:55 PM 60.3 °F - 30.2 °F 32% 29.90 in 10.0 mi WNW 12.7 mph 17.3 mph N/A   Clear
6:15 PM 59.9 °F - 30.9 °F 33% 29.90 in 10.0 mi WNW 11.5 mph 18.4 mph N/A   Clear
6:35 PM 59.5 °F - 31.3 °F 34% 29.90 in 10.0 mi WNW 10.4 mph 18.4 mph N/A   Clear
6:55 PM 59.0 °F - 31.3 °F 35% 29.89 in 10.0 mi WNW 10.4 mph 18.4 mph N/A   Clear
7:15 PM 58.3 °F - 31.1 °F 36% 29.90 in 10.0 mi NW 8.1 mph - N/A   Clear
7:35 PM 57.4 °F - 31.8 °F 38% 29.91 in 10.0 mi WNW 8.1 mph 17.3 mph N/A   Clear
7:55 PM 56.3 °F - 32.0 °F 40% 29.91 in 10.0 mi NW 10.4 mph 18.4 mph N/A   Clear
8:15 PM 55.4 °F - 32.0 °F 41% 29.91 in 10.0 mi WNW 10.4 mph 17.3 mph N/A   Clear
8:35 PM 54.5 °F - 32.0 °F 42% 29.92 in 10.0 mi West 5.8 mph - N/A   Clear
8:55 PM 54.0 °F - 32.2 °F 44% 29.92 in 10.0 mi West 5.8 mph - N/A   Scattered Clouds
9:15 PM 53.6 °F - 32.2 °F 44% 29.93 in 10.0 mi WNW 5.8 mph - N/A   Clear
9:35 PM 53.6 °F - 32.4 °F 44% 29.93 in 10.0 mi West 5.8 mph - N/A   Mostly Cloudy
9:55 PM 53.2 °F - 32.2 °F 45% 29.93 in 10.0 mi Calm Calm - N/A   Scattered Clouds
10:15 PM 52.7 °F - 32.2 °F 46% 29.94 in 10.0 mi Calm Calm - N/A   Scattered Clouds
10:35 PM 50.4 °F - 34.2 °F 54% 29.94 in 10.0 mi Calm Calm - N/A   Mostly Cloudy
10:55 PM 50.2 °F - 35.2 °F 57% 29.94 in 10.0 mi Calm Calm - N/A   Mostly Cloudy
11:15 PM 50.9 °F - 33.8 °F 52% 29.94 in 10.0 mi West 4.6 mph - N/A   Mostly Cloudy
11:35 PM 50.5 °F - 34.0 °F 53% 29.94 in 10.0 mi WNW 4.6 mph - N/A   Mostly Cloudy
11:55 PM 50.2 °F - 34.5 °F 55% 29.94 in 10.0 mi West 3.5 mph - N/A   Mostly Cloudy